Location: Venise Bay
(45.0825°N, 73.1481°W)
Time: 09:52:15
(UTC-05:00)

N. Korean satellite - Visible Passes

Search period start: 24 January 2022 00:00
Search period end: 03 February 2022 00:00
Orbit: 447 x 491 km, 97.3° (Epoch: 23 January)

Date Brightness Start Highest point End Pass type
(mag) Time Alt. Az. Time Alt. Az. Time Alt. Az.
24 Jan 7.4 04:55:02 10° NNE 04:58:08 48° ENE 04:58:08 48° ENE visible
24 Jan 8.4 06:29:43 10° NW 06:31:18 12° WNW 06:32:11 12° WNW visible
25 Jan 8.9 04:26:20 10° NE 04:29:03 23° E 04:29:03 23° E visible
25 Jan 7.6 05:59:22 10° NNW 06:02:23 25° WNW 06:03:06 23° W visible
26 Jan 10.0 03:58:52 10° ENE 03:59:52 11° E 03:59:58 11° E visible
26 Jan 6.6 05:29:46 10° N 05:33:20 54° WNW 05:34:02 45° WSW visible
27 Jan 7.0 05:00:32 10° NNE 05:04:09 63° E 05:04:57 47° SSE visible
27 Jan 8.6 06:35:49 10° NW 06:36:47 11° WNW 06:37:44 10° WNW visible
28 Jan 8.7 04:31:42 10° NE 04:34:50 27° E 04:35:54 23° SE visible
28 Jan 7.8 06:05:00 10° NNW 06:07:50 22° WNW 06:09:58 14° WSW visible
29 Jan 9.8 04:03:42 10° ENE 04:05:22 13° E 04:06:52 10° ESE visible
29 Jan 6.8 05:35:16 10° N 05:38:46 46° WNW 05:40:57 20° SW visible
30 Jan 6.7 05:05:55 10° NNE 05:09:34 74° ESE 05:11:58 20° S visible
31 Jan 8.4 04:36:57 10° NNE 04:40:14 31° E 04:43:06 12° SSE visible
31 Jan 8.0 06:10:32 10° NNW 06:13:09 19° WNW 06:15:46 10° WSW visible
01 Feb 9.7 04:08:40 10° NE 04:10:44 15° E 04:12:48 10° SE visible
01 Feb 7.0 05:40:39 10° N 05:44:04 39° WNW 05:47:27 10° SW visible
02 Feb 6.5 05:11:12 10° NNE 05:14:51 87° ESE 05:18:27 10° SSW visible
